Location: ???????????
(55.5758°N, 38.4970°E)
Time: 17:34:38
(UTC+00:00)

Cosmos 1356 Rocket - Pass Details

Date: 15 November 2025
Orbit: 517 x 558 km, 81.2° (Epoch: 14 December)

Event Time Altitude Azimuth Distance (km) Brightness Sun altitude
Rises 03:32:35 0° 348° (NNW) 2,733 6.6 -12.2°
Reaches altitude 10° 03:34:48 10° 354° (N) 1,841 5.8 -11.9°
Maximum altitude 03:38:46 50° 70° (ENE) 717 4.3 -11.3°
Drops below altitude 10° 03:42:44 10° 147° (SSE) 1,843 6.8 -10.8°
Sets 03:44:57 0° 153° (SSE) 2,736 7.6 -10.5°
